Location: Limerick
(52.6650°N, 8.6230°W)
Time: 23:41:32
(UTC+01:00)

Mayak - Visible Passes

Search period start: 23 July 2017 00:00
Search period end: 02 August 2017 00:00
Orbit: 586 x 605 km, 97.6° (Epoch: 22 July)

Date Brightness Start Highest point End Pass type
(mag) Time Alt. Az. Time Alt. Az. Time Alt. Az.
23 Jul -1.1 01:21:14 10° NNE 01:25:26 60° ESE 01:26:58 35° SSE visible
23 Jul 0.8 02:57:37 10° NNW 03:00:42 20° WNW 03:03:38 11° WSW visible
24 Jul -1.3 01:31:01 10° NNE 01:35:15 75° ESE 01:36:50 37° S visible
24 Jul 1.0 03:07:42 10° NNW 03:10:25 17° WNW 03:13:08 10° W visible
25 Jul 1.0 00:06:59 10° ENE 00:08:46 12° E 00:10:02 11° ESE visible
25 Jul -1.3 01:40:50 10° NNE 01:45:05 89° WNW 01:46:41 37° SSW visible
25 Jul 1.2 03:17:50 10° NNW 03:20:06 14° NW 03:22:22 10° W visible
26 Jul 0.8 00:16:13 10° NE 00:18:43 15° E 00:19:53 14° ESE visible
26 Jul -1.2 01:50:40 10° N 01:54:53 72° WNW 01:56:33 35° SSW visible
26 Jul 1.3 03:28:09 10° NNW 03:29:48 12° NW 03:31:26 10° WNW visible
27 Jul 0.5 00:25:40 10° NE 00:28:39 19° E 00:29:45 17° ESE visible
27 Jul -0.9 02:00:32 10° N 02:04:40 58° WNW 02:06:24 32° SW visible
27 Jul 1.5 03:39:09 10° NW 03:39:27 10° NW 03:39:46 10° NW visible
28 Jul 0.3 00:35:13 10° NE 00:38:33 23° E 00:39:36 21° ESE visible
28 Jul -0.6 02:10:24 10° N 02:14:27 47° WNW 02:16:15 28° SW visible
29 Jul 0.0 00:44:50 10° NE 00:48:27 27° E 00:49:26 25° ESE visible
29 Jul -0.2 02:20:18 10° N 02:24:13 38° WNW 02:26:06 25° WSW visible
30 Jul -0.3 00:54:29 10° NNE 00:58:20 33° E 00:59:17 30° ESE visible
30 Jul 0.1 02:30:14 10° N 02:33:58 32° WNW 02:35:56 21° WSW visible
31 Jul -0.6 01:04:12 10° NNE 01:08:12 41° E 01:09:08 36° SE visible
31 Jul 0.4 02:40:11 10° N 02:43:42 27° WNW 02:45:47 18° WSW visible
01 Aug -0.9 01:13:56 10° NNE 01:18:03 51° E 01:18:58 42° SE visible
01 Aug 0.6 02:50:09 10° N 02:53:25 22° WNW 02:55:37 15° W visible
